Location: Amherst
(42.5000°N, 72.5000°W)
Time: 16:40:08
(UTC-04:00)

ISS - Pass Details

Date: 17 July 2018
Orbit: 402 x 408 km, 51.6° (Epoch: 22 July)

Event Time Altitude Azimuth Distance (km) Brightness Sun altitude
Exits shadow 00:18:55 18° 36° (NE) 1,068 -1.3 -25.7°
Drops below altitude 10° 00:20:00 10° 45° (NE) 1,469 -0.6 -25.7°
Sets 00:22:11 0° 54° (NE) 2,333 0.4 -25.8°
